SZN1005 GBYD-GOBD

Flight info

Callsign SZN1005
Flight time 0h 21m
Altitude 12000
Route BIDAV BIDAV1A
Aircraft A320/M-SDE3FGHIRWY/LB1

Departure

Time 2026-04-28 17:41
Airport Banjul International Airport (GBYD)

Arrival

Time 2026-04-28 18:02
Airport Blaise Diagne International Airport (GOBD)
Time Latitude Longitude Altitude Speed Heading
2026-04-28 17:18 13.34308 -16.65339 92 ft 0 kts 130°
2026-04-28 17:36 13.34305 -16.65337 91 ft 1 kts 130°
2026-04-28 17:37 13.34302 -16.65332 91 ft 4 kts 130°
2026-04-28 17:37 13.34264 -16.65315 91 ft 8 kts 189°
2026-04-28 17:37 13.34202 -16.65362 91 ft 15 kts 221°
2026-04-28 17:37 13.34118 -16.65350 91 ft 14 kts 129°
2026-04-28 17:38 13.34057 -16.65278 91 ft 13 kts 131°
2026-04-28 17:38 13.33997 -16.65208 93 ft 13 kts 133°
2026-04-28 17:38 13.33911 -16.65219 92 ft 17 kts 220°
2026-04-28 17:38 13.33814 -16.65259 90 ft 15 kts 134°
2026-04-28 17:39 13.33729 -16.65157 90 ft 24 kts 130°
2026-04-28 17:39 13.33603 -16.65007 88 ft 29 kts 130°
2026-04-28 17:39 13.33333 -16.64686 90 ft 31 kts 130°
2026-04-28 17:40 13.33230 -16.64547 92 ft 16 kts 109°
2026-04-28 17:40 13.33200 -16.64481 91 ft 9 kts 176°
2026-04-28 17:40 13.33189 -16.64513 92 ft 7 kts 305°
2026-04-28 17:40 13.33287 -16.64631 93 ft 53 kts 310°
2026-04-28 17:41 13.33679 -16.65098 92 ft 117 kts 310°
2026-04-28 17:41 13.34318 -16.65852 248 ft 150 kts 308°
2026-04-28 17:41 13.35002 -16.66652 859 ft 149 kts 310°
2026-04-28 17:41 13.35690 -16.67466 1405 ft 158 kts 313°
2026-04-28 17:42 13.36470 -16.68384 1665 ft 184 kts 313°
2026-04-28 17:42 13.37112 -16.69014 1860 ft 195 kts 326°
2026-04-28 17:42 13.38783 -16.70052 2330 ft 227 kts 333°
2026-04-28 17:42 13.40240 -16.70870 2803 ft 249 kts 332°
2026-04-28 17:43 13.41782 -16.71744 3540 ft 256 kts 331°
2026-04-28 17:43 13.43360 -16.72662 4284 ft 264 kts 330°
2026-04-28 17:43 13.44963 -16.73603 5141 ft 266 kts 330°
2026-04-28 17:43 13.46585 -16.74562 5932 ft 272 kts 329°
2026-04-28 17:44 13.48244 -16.75554 6655 ft 279 kts 329°
2026-04-28 17:44 13.49945 -16.76571 7347 ft 286 kts 329°
2026-04-28 17:44 13.51683 -16.77609 8073 ft 292 kts 329°
2026-04-28 17:44 13.53459 -16.78671 8836 ft 297 kts 329°
2026-04-28 17:45 13.55264 -16.79751 9573 ft 304 kts 328°
2026-04-28 17:45 13.57109 -16.80856 10173 ft 314 kts 328°
2026-04-28 17:45 13.59068 -16.82031 10412 ft 337 kts 328°
2026-04-28 17:45 13.61131 -16.83270 10908 ft 347 kts 328°
2026-04-28 17:46 13.63233 -16.84529 11573 ft 352 kts 328°
2026-04-28 17:46 13.65342 -16.85792 11854 ft 350 kts 327°
2026-04-28 17:46 13.67436 -16.87043 11930 ft 342 kts 327°
2026-04-28 17:46 13.69462 -16.88251 11950 ft 334 kts 327°
2026-04-28 17:47 13.71465 -16.89445 11954 ft 332 kts 327°
2026-04-28 17:47 13.73455 -16.90637 11953 ft 331 kts 327°
2026-04-28 17:47 13.75445 -16.91833 11950 ft 331 kts 327°
2026-04-28 17:47 13.76762 -16.92624 11947 ft 331 kts 327°
2026-04-28 17:48 13.79425 -16.94218 11945 ft 331 kts 327°
2026-04-28 17:48 13.81414 -16.95413 11947 ft 331 kts 327°
2026-04-28 17:48 13.83401 -16.96609 11948 ft 329 kts 327°
2026-04-28 17:48 13.85329 -16.97766 11712 ft 314 kts 327°
2026-04-28 17:49 13.87199 -16.98886 11128 ft 309 kts 327°
2026-04-28 17:49 13.89048 -16.99995 10471 ft 308 kts 328°
2026-04-28 17:49 13.90898 -17.01105 9803 ft 307 kts 328°
2026-04-28 17:49 13.92730 -17.02205 9165 ft 304 kts 328°
2026-04-28 17:50 13.94543 -17.03293 8547 ft 300 kts 328°
2026-04-28 17:50 13.96334 -17.04369 7940 ft 295 kts 328°
2026-04-28 17:50 13.98093 -17.05425 7354 ft 290 kts 328°
2026-04-28 17:50 13.99822 -17.06463 6748 ft 286 kts 329°
2026-04-28 17:51 14.01504 -17.07412 6595 ft 264 kts 330°
2026-04-28 17:51 14.03050 -17.08270 6442 ft 244 kts 332°
2026-04-28 17:51 14.04645 -17.08734 6025 ft 237 kts 356°
2026-04-28 17:51 14.06287 -17.08694 5613 ft 236 kts
2026-04-28 17:52 14.07911 -17.08546 5343 ft 233 kts
2026-04-28 17:52 14.09510 -17.08374 5072 ft 229 kts
2026-04-28 17:52 14.12670 -17.08211 4610 ft 231 kts 359°
2026-04-28 17:53 14.14288 -17.08175 4485 ft 234 kts 359°
2026-04-28 17:53 14.15952 -17.08138 4390 ft 248 kts 359°
2026-04-28 17:53 14.17682 -17.08098 4293 ft 255 kts
2026-04-28 17:53 14.19461 -17.08054 4197 ft 255 kts
2026-04-28 17:54 14.21231 -17.08005 4096 ft 254 kts 360°
2026-04-28 17:54 14.22997 -17.07954 4035 ft 253 kts
2026-04-28 17:54 14.24763 -17.07901 4043 ft 254 kts 360°
2026-04-28 17:54 14.26529 -17.07850 4039 ft 254 kts 359°
2026-04-28 17:55 14.28289 -17.07801 4044 ft 252 kts
2026-04-28 17:55 14.30053 -17.07752 4047 ft 254 kts
2026-04-28 17:55 14.31825 -17.07703 4047 ft 255 kts 359°
2026-04-28 17:55 14.33567 -17.07652 3996 ft 244 kts 359°
2026-04-28 17:56 14.35220 -17.07602 3869 ft 232 kts 359°
2026-04-28 17:56 14.36798 -17.07555 3745 ft 224 kts
2026-04-28 17:56 14.38352 -17.07511 3624 ft 222 kts 359°
2026-04-28 17:56 14.39889 -17.07467 3503 ft 220 kts 359°
2026-04-28 17:57 14.41417 -17.07423 3386 ft 220 kts 359°
2026-04-28 17:57 14.42947 -17.07380 3286 ft 220 kts
2026-04-28 17:57 14.44474 -17.07336 3217 ft 220 kts 359°
2026-04-28 17:57 14.45995 -17.07292 3122 ft 217 kts 359°
2026-04-28 17:58 14.47496 -17.07248 3024 ft 215 kts 359°
2026-04-28 17:58 14.48995 -17.07205 3022 ft 217 kts 360°
2026-04-28 17:58 14.50504 -17.07162 3010 ft 214 kts 359°
2026-04-28 17:58 14.51940 -17.07146 2831 ft 201 kts 357°
2026-04-28 17:59 14.53310 -17.07153 2617 ft 194 kts 357°
2026-04-28 17:59 14.54636 -17.07165 2351 ft 187 kts 358°
2026-04-28 17:59 14.55892 -17.07176 2114 ft 173 kts 359°
2026-04-28 17:59 14.57049 -17.07187 1875 ft 159 kts 359°
2026-04-28 18:00 14.58094 -17.07197 1677 ft 141 kts
2026-04-28 18:00 14.59045 -17.07206 1506 ft 133 kts
2026-04-28 18:00 14.59958 -17.07213 1332 ft 130 kts 359°
2026-04-28 18:00 14.60846 -17.07221 1152 ft 129 kts 359°
2026-04-28 18:01 14.61741 -17.07228 997 ft 128 kts
2026-04-28 18:01 14.62622 -17.07238 837 ft 127 kts 360°
2026-04-28 18:01 14.63518 -17.07246 710 ft 128 kts
2026-04-28 18:01 14.64410 -17.07254 531 ft 128 kts
2026-04-28 18:02 14.65296 -17.07263 374 ft 126 kts
2026-04-28 18:02 14.66148 -17.07271 291 ft 112 kts 360°
2026-04-28 18:02 14.66747 -17.07279 298 ft 65 kts 358°
2026-04-28 18:02 14.67024 -17.07277 298 ft 19 kts 17°
2026-04-28 18:03 14.67075 -17.07172 297 ft 18 kts 88°
2026-04-28 18:03 14.67077 -17.07035 296 ft 17 kts 89°
2026-04-28 18:03 14.67060 -17.06978 295 ft 4 kts 155°
2026-04-28 18:03 14.67036 -17.06973 294 ft 3 kts 160°
2026-04-28 18:04 14.67025 -17.06958 296 ft 5 kts 114°
2026-04-28 18:04 14.67023 -17.06910 292 ft 6 kts 88°
2026-04-28 18:04 14.67023 -17.06869 292 ft 5 kts 89°
2026-04-28 18:04 14.67023 -17.06859 292 ft 0 kts 89°